Tracking 19795 objects as of 17-Jul-2019
HD Live streaming from Space Station
objects crossing your sky now

NOAA 16 DEB

Track NOAA 16 DEB now!
10-day predictions


NORAD ID: 41058
Int'l Code: 2000-055R
Perigee: 855.3 km
Apogee: 894.8 km
Inclination: 98.8 °
Period: 102.3 minutes
Semi major axis: 7246 km
RCS: Unknown
Launch date: September 21, 2000
Source: United States (US)
Launch site: AIR FORCE WESTERN TEST RANGE (AFWTR)

Note: This is SATELLITE DEBRIS
aabbcc
Your satellite tracking list
Your tracking list is empty




NASA's NSSDC Master Catalog

Two Line Element Set (TLE):
1 41058U 00055R   19198.85944140  .00000184  00000-0  13400-3 0  9995
2 41058  98.7798 257.8374 0027296 108.5385 251.8753 14.07511216187094
Source of the keplerian elements: AFSPC